STARLINK-1266, 45383

Orbit data source: Space-Track

STARLINK-1266, 45383 is a payload satellite owned by SpaceX/Seattle (US) in LEO that was launched on Wed, 18 Mar 2020 UTC via an FALCON 9 launch vehicle from the Air Force Eastern Test Range (AFETR). Payload-class satellites include a variety of spacecraft equipped with specific instruments for various scientific and technological missions. These include communications satellites like Starlink; space stations such as the ISS; scientific satellites like the Hubble; Earth observation satellites from companies like Planet Labs, Umbra, and HawkEye 360; GPS; miniature CubeSats for education and research; and military/defense satellites.

Loading next visibility...
Identifier
45383, 2020-019Z
Orbit
LEO
Country
Flag of USUS
Related business
Manufacturer
SpaceX/Seattle
Mission
Operational Commercial Communications
Bus & Motor
STARLINK, Unknown motor
Mass
260 kg wet, ~248 kg dry
Launch date (UTC)
2020-03-18 (6 years ago)
Launch vehicle
FALCON 9
Launch site
Air Force Eastern Test Range (AFETR)
Object type
Payload
Rocket body
Debris
Shape & HBR
Box + 1 Pan, 10.1 m
Radar Cross Section
13.562 m², Large (>1 m²)

Expand to show TLE details & history
Last TLE update: 14 hours ago

TLE from 14 hours ago
0 STARLINK-1266
1 45383U 20019Z   25340.92986001  .00000009  00000-0  19503-4 0  9995
2 45383  53.0538 203.0375 0001552 103.2571 256.8591 15.06394435316029
Epoch: 2025-12-06T22:18Z
TLE epoch observation values (Epoch: 2025-12-06T22:18:59.904Z)
Latitude
-0.00005°
Longitude
152.33732°
Altitude
548.352 km
Speed
7.589 km/s
True Right ascension
13h 32m 08s
True Declination
0° 00' 00"
Sunlit
Object was in daylight at epoch
Visualization orbit readout
Latitude
Unknown
Longitude
Unknown
Altitude
Unknown
Speed
Unknown
Apparent Right ascension
Unknown
Apparent Declination
Unknown
Sunlit
N/A
Visualization observer readout
Local Sidereal Time
10:01:11
Azimuth
Unknown
Elevation
Unknown
Doppler factor
Unknown
Orbital elements
Apogee altitude
548.574 km
Perigee altitude
546.425 km
Semi-major axis
6,925.636 km
Eccentricity
0.00016
Inclination
53.0538°
RAAN
203.0375°
Arg. of periapsis
103.2571°
True anomaly
256.84178°
Mean anomaly
256.8591°
Eccentric anomaly
256.85044°
Mean motion
3.76577 °/min
Orbital period
95.6 mins
BSTAR
0.000019503
Loading maneuver chart data...
Computing Atmospheric mass density...
Loading historical data...
Loading historical data...
Loading historical data...
Loading historical data...
Loading historical data...
Loading historical data...
Loading historical data...

Documentation

Showing up to 5 results
|